Location: M?digepalle
(16.1753°N, 80.3496°E)
Time: 09:09:53
(UTC+00:00)

CZ-2C R/B - Pass Details

Date: 29 October 2020
Orbit: 784 x 871 km, 98.2° (Epoch: 27 November)

Event Time Altitude Azimuth Distance (km) Brightness Sun altitude
Exits shadow 13:29:01 35° 97° (E) 1,283 3.1 -19.5°
Maximum altitude 13:29:07 35° 100° (E) 1,282 3.1 -19.5°
Drops below altitude 10° 13:33:52 10° 165° (SSE) 2,368 5.0 -20.7°
Sets 13:36:21 0° 174° (S) 3,286 5.8 -21.2°
